Regional Weather Roundup
Issued by NWS

Home | Current Version | Previous Version | Text Only | Print | Product List | Glossary Off
Versions: 1 2 3 4 5 6 7 8 9 10 11 12 13 14 15 16 17 18 19 20 21 22 23 24 25 26 27 28

000
ASUS45 KBOU 261508
RWRCO

WEATHER ROUNDUP FOR COLORADO
NATIONAL WEATHER SERVICE PUEBLO CO
900 AM MDT WED APR 26 2017

NOTE: "FAIR" INDICATES FEW OR NO CLOUDS BELOW 12000 FEET WITH NO
SIGNIFICANT WEATHER AND/OR OBSTRUCTIONS TO VISIBILITY.

COZ001>005-013-030-031-261600-
...NORTHWEST COLORADO...

CITY           SKY/WX    TMP DP  RH WIND       PRES   REMARKS
CRAIG          CLOUDY    37  30  75 E5        29.91F
HAYDEN         CLOUDY    34  27  75 SE5       29.91F WCI  30
MEEKER         CLOUDY    38  33  82 SE3       29.92F
MOUNT WERNER   NOT AVBL
STEAMBOAT SPGS CLOUDY    32  30  94 CALM      29.91S
WALDEN           N/A     32  21  64 W7        29.90S WCI  26
$$

COZ006>008-011-261600-
...WEST CENTRAL VALLEYS...

CITY           SKY/WX    TMP DP  RH WIND       PRES   REMARKS
GRAND JUNCTION CLOUDY    44  37  76 SE5       29.93S
MONTROSE       SUNNY     43  34  70 VRB3      29.97R
EAGLE          CLOUDY    34  28  80 CALM      29.94S
RIFLE          CLOUDY    40  34  79 CALM      29.94S
DELTA          NOT AVBL
NUCLA          CLOUDY    43  32  65 MISG      29.99R
$$

COZ017>023-064>068-261600-
...SOUTHWEST COLORADO...

CITY           SKY/WX    TMP DP  RH WIND       PRES   REMARKS
DURANGO        SUNNY     39  25  57 VRB3      29.92R
CORTEZ         SUNNY     44  29  55 CALM      29.94S
PAGOSA SPRINGS FAIR      35  27  70 E6        29.93F WCI  30
TELLURIDE      CLOUDY    32  25  76 CALM      29.99R
WOLF CREEK PAS SUNNY     19  12  73 W3        30.00R
$$

COZ009-010-012-014-032>034-037-058>063-261600-
...CENTRAL COLORADO...

CITY           SKY/WX    TMP DP  RH WIND       PRES   REMARKS
ASPEN          CLOUDY    34  26  72 N5        29.92R WCI  30
BUENA VISTA    FAIR      40  12  32 NW16G25   29.88S
COPPER MTN     LGT SNOW  21  16  79 MISG      29.92R
BERTHOUD PASS  CLOUDY    12   1  62 NW24G33   29.87F WCI  -8
COTTONWOOD PAS CLOUDY    32  12  43 SW15G21   29.90S WCI  22
GUNNISON       SUNNY     37  22  54 SW8       29.93S
KREMMLING      CLOUDY    39  28  65 SW8       29.92S
LEADVILLE      CLOUDY    24  14  65 CALM      29.90S
MONARCH PASS   CLOUDY    18  14  86 W14       30.03R WCI   4
SALIDA         FAIR      42  17  36 N5        29.95S
NIWOT RIDGE    NOT AVBL
SUNLIGHT       FOG      N/A N/A N/A MISG      29.98S VSB 1/2
WILKERSON PASS SUNNY     23  12  63 N15G25    29.90F WCI  10
$$

COZ069>075-261600-
...SAN LUIS VALLEY/SANGRE DE CRISTO MOUNTAINS...

CITY           SKY/WX    TMP DP  RH WIND       PRES   REMARKS
ALAMOSA        SUNNY     40  25  55 N13       29.89R
LA VETA PASS   SUNNY     28  23  80 S10       29.99S WCI  19
SAGUACHE       SUNNY     39  18  41 N21       29.90S
$$

COZ035-036-038>040-261600-
...NORTHERN COLORADO FRONT RANGE...

CITY           SKY/WX    TMP DP  RH WIND       PRES   REMARKS
DENVER INTL AP MOSUNNY   40  28  62 VRB3      29.83S
DMNS CITY PARK NOT AVBL
AURORA         MOSUNNY   38  27  64 CALM      29.84S
FRONT RANGE AP MOSUNNY   39  30  70 W7        29.84S
ERIE MUNI ARPT FAIR      42  30  63 CALM      29.83F
BOULDER MUN AP FAIR      41  28  60 CALM      29.82S
CENTENNIAL     MOSUNNY   39  28  64 CALM      29.83F
BROOMFIELD     NOT AVBL
LOVELAND       SUNNY     40  28  62 S7        29.82F
LONGMONT       FAIR      44  30  58 CALM      29.84F HAZE
$$

COZ041-046-047-076>085-087-088-261600-
...PIKES PEAK/PALMER DIVIDE AND SOUTHERN FOOTHILLS...

CITY           SKY/WX    TMP DP  RH WIND       PRES   REMARKS
COLO. SPRINGS  MOSUNNY   38  29  70 SE5       29.86R
A. F. ACADEMY  SUNNY     37  28  69 CALM      29.84R
ELLICOTT       NOT AVBL
FALCON         FAIR      37  26  66 N9        29.85S
SCHRIEVER AFB  FAIR      37  28  70 SW3       29.85F
FORT CARSON    MOSUNNY   40  31  70 E5        29.85S
LIMON          SUNNY     38  29  70 N18G24    29.83S
MONUMENT HILL  SUNNY     30  28  93 W3        29.85S
TRINIDAD       MOSUNNY   36  31  82 E6        29.86S
$$

COZ042>045-048>051-090-091-261600-
...NORTHEAST COLORADO...

CITY           SKY/WX    TMP DP  RH WIND       PRES   REMARKS
GREELEY ARPT   SUNNY     40  28  62 VRB3      29.84F
AKRON          SUNNY     38  28  67 N17       29.82F
BURLINGTON     NOT AVBL
WRAY           NOT AVBL
STERLING       FAIR      39  32  75 N13       29.82F
HOLYOKE        CLOUDY    37  32  81 N15G21    29.83S
FORT MORGAN    FAIR      43  28  56 N13       29.84F
$$

COZ086-089-092>099-261600-
...SOUTHEAST COLORADO...

CITY           SKY/WX    TMP DP  RH WIND       PRES   REMARKS
PUEBLO         SUNNY     41  31  67 E3        29.86S
LA JUNTA       SUNNY     44  34  67 NW9       29.86F
LAMAR          PTSUNNY   42  31  64 N14       29.84F
SPRINGFIELD      N/A     39  30  70 N23       29.83S
$$





USA.gov is the U.S. government's official web portal to all federal, state and local government web resources and services.